Wetbulb
66.04 65.57 66.98 64.27 53.97 52.65 47.99 49.35 55.17 53.82 55.24 58.63 58.81 57.83 56.90 56.85 54.70 52.84 64.07 65.81 67.66 67.55 70.31 70.71 70.68 71.29 70.39 69.65 69.17 68.93 68.74 67.90 67.78 67.87 67.23 67.41 67.20 67.00 66.67 66.58 66.57 66.61 66.81 66.87 66.37 66.14 66.20 66.39 66.45
65.33 63.30 64.02 60.33 49.94 45.83 46.81 52.37 51.78 55.11 56.96 59.75 57.44 57.32 56.17 56.03 60.11 61.31 63.27 65.81 67.88 68.63 70.00 69.75 69.88 70.88 70.24 69.50 69.07 68.80 68.48 67.95 67.49 67.40 67.22 67.01 67.05 66.55 66.51 66.57 66.65 66.81 66.65 66.25 66.05 66.18 66.30 66.44 66.66
64.13 62.68 57.42 53.37 49.39 45.59 46.96 52.00 53.84 55.53 57.83 58.64 57.90 59.19 58.45 57.68 60.88 62.93 65.56 66.44 68.17 68.97 69.72 69.31 69.93 70.64 70.21 69.59 69.07 68.73 68.46 68.20 67.24 67.26 67.09 66.84 66.47 66.65 66.58 66.50 66.53 66.56 66.17 66.03 66.13 66.17 66.34 66.42 66.90
62.01 60.40 58.18 49.60 46.59 50.44 51.49 53.72 55.61 56.15 58.40 60.18 60.13 56.73 59.86 62.30 62.14 64.94 66.62 67.33 68.13 68.76 69.54 68.89 70.02 70.47 70.31 69.72 69.30 68.66 67.97 67.18 67.06 67.06 67.01 66.67 66.49 66.70 66.69 66.57 66.45 65.82 65.74 66.00 66.15 66.15 66.24 66.60 66.88
61.72 57.68 49.61 47.59 47.97 51.20 54.37 55.67 56.25 55.68 56.82 58.61 59.84 57.36 58.01 61.56 64.33 66.18 65.57 66.51 67.53 68.35 69.17 69.44 69.66 69.90 70.04 69.96 69.45 68.75 68.14 67.61 68.03 67.39 67.08 66.72 66.58 66.56 66.71 66.35 65.36 65.58 65.81 65.78 65.89 66.06 66.42 66.75 66.82
54.74 55.36 45.41 43.04 47.57 51.40 53.86 56.56 56.69 56.05 57.34 58.26 57.79 58.02 58.83 62.57 64.29 64.29 64.91 65.87 67.64 68.02 68.50 68.83 67.41 68.32 68.97 69.45 69.17 68.68 68.27 67.98 67.88 67.85 67.56 66.67 66.35 66.74 66.14 64.99 65.53 65.51 65.38 65.66 66.04 66.27 66.63 66.84 66.72
51.91 49.76 45.59 46.39 46.67 49.81 52.47 56.62 54.85 55.56 56.62 56.98 60.21 57.00 59.33 60.38 64.34 64.10 64.69 65.44 66.83 68.04 67.96 68.25 69.50 68.66 66.02 67.30 67.76 67.92 67.77 67.40 67.27 67.45 67.38 66.91 66.98 66.85 65.39 65.93 65.28 65.11 65.37 65.73 65.96 66.14 66.40 66.54 65.87
53.88 51.01 46.04 46.46 44.78 47.01 54.02 54.85 56.17 55.54 55.09 60.56 61.42 56.83 57.43 61.08 63.01 63.81 64.70 64.89 66.07 66.92 66.61 66.77 67.86 69.26 69.11 69.18 64.88 65.52 66.19 66.11 66.09 65.87 65.28 64.46 64.69 65.12 64.85 63.60 64.86 64.71 64.78 65.04 65.15 65.30 65.89 65.78 64.44
55.61 46.60 43.45 44.92 45.40 49.14 54.35 52.93 57.04 59.43 57.67 59.26 60.42 59.12 60.44 62.94 62.92 62.44 62.63 63.49 64.03 64.42 64.97 65.85 66.74 68.41 68.70 68.88 66.24 63.25 63.59 63.77 63.58 63.51 62.17 62.52 64.90 64.72 63.25 62.07 63.32 64.12 63.97 64.41 65.56 65.59 64.76 62.81 61.84
47.60 43.77 44.79 50.06 51.19 49.54 52.91 53.48 54.65 55.12 56.29 57.60 59.20 59.27 61.87 60.76 61.16 60.04 60.03 61.12 62.16 62.61 64.25 65.42 66.70 66.96 68.14 67.63 65.05 66.25 64.76 64.47 63.94 64.40 64.51 64.45 64.62 64.84 64.51 61.68 61.44 62.87 62.15 65.54 63.60 62.42 61.64 62.11 63.39
45.57 42.07 47.75 49.16 51.72 52.05 52.43 52.63 55.53 54.30 52.88 56.48 57.78 58.82 59.56 59.46 59.68 59.67 60.17 61.31 61.59 62.60 64.08 65.00 66.79 67.13 67.27 66.54 64.94 66.28 64.29 63.64 63.72 64.55 64.35 64.43 64.91 65.17 65.87 66.50 65.83 66.66 62.14 67.12 65.04 63.55 62.35 61.21 61.79
38.39 43.61 46.08 47.48 50.49 50.10 50.69 53.98 53.09 54.31 55.45 58.36 60.27 61.06 59.88 58.79 58.95 59.41 60.49 60.53 61.57 61.97 63.92 65.14 66.68 66.34 66.05 64.98 64.72 64.78 62.66 62.71 62.82 63.62 64.33 65.21 65.21 65.71 66.00 66.61 67.05 66.83 67.31 65.29 63.58 61.69 59.60 59.15 59.88
38.22 39.58 42.29 44.82 45.91 47.72 49.63 50.56 52.11 52.52 56.90 58.26 59.18 59.50 59.75 59.76 59.71 60.64 60.98 61.49 61.82 61.28 63.22 63.88 65.10 65.45 65.38 64.15 64.25 62.68 61.58 61.82 62.53 64.04 65.20 65.75 65.53 65.68 66.62 66.80 65.04 62.88 64.40 63.01 61.04 58.60 57.79 57.51 59.59
41.12 40.76 40.86 41.97 42.21 44.86 43.76 47.80 49.69 53.07 56.83 56.64 57.62 58.35 59.76 59.81 60.25 60.42 60.53 60.80 60.83 62.00 62.72 63.73 62.79 63.29 63.77 63.32 62.57 61.60 61.58 61.96 63.12 64.86 65.73 65.79 65.88 66.49 66.34 62.60 60.12 60.14 62.47 61.20 58.43 55.93 55.52 57.31 58.45
40.70 36.92 39.57 40.51 40.61 40.11 44.43 42.38 46.23 52.55 55.40 55.11 55.88 57.71 59.09 59.96 60.44 59.82 60.52 60.20 60.66 62.19 63.10 62.55 62.27 61.97 61.56 62.52 61.82 61.45 61.88 62.45 63.92 65.43 66.35 65.74 66.24 65.70 62.92 59.72 57.65 58.17 59.79 56.51 54.48 54.05 55.49 55.62 54.12
35.55 35.84 30.87 38.38 40.38 40.70 41.96 37.09 47.97 52.55 52.64 53.28 55.19 56.46 57.91 59.45 60.26 60.61 61.02 61.22 61.84 62.02 62.48 62.87 62.01 61.71 61.57 61.23 61.82 61.75 62.22 63.45 64.56 65.70 66.08 65.72 66.12 62.92 59.36 56.72 55.92 58.15 58.72 55.06 53.46 53.90 53.78 53.54 52.11
33.47 27.50 30.24 33.71 40.34 39.81 40.22 37.73 45.53 49.62 51.72 51.65 54.01 55.70 56.54 58.42 59.95 60.76 60.93 61.56 61.75 62.04 62.17 62.52 62.03 61.69 62.71 62.41 62.41 62.89 63.25 63.83 64.81 65.41 65.75 65.64 62.23 58.67 55.89 53.91 53.94 54.25 54.68 53.76 51.74 52.87 52.62 50.69 48.63
27.01 27.95 30.15 30.59 36.73 38.54 37.07 38.36 43.99 47.93 50.67 51.43 52.81 54.29 56.07 56.75 58.72 60.86 61.02 61.50 62.06 62.03 61.95 62.11 62.04 61.90 62.93 62.28 62.16 62.80 63.26 63.96 64.07 63.89 63.18 61.44 58.65 54.39 52.36 51.14 51.75 53.11 52.37 50.10 51.06 51.00 51.43 49.29 45.34
31.25 28.98 27.86 31.92 36.48 35.90 37.07 38.19 40.46 45.05 46.25 49.50 52.41 53.39 54.26 55.96 58.76 60.92 61.66 61.64 61.64 61.53 60.71 60.60 60.87 61.44 62.34 60.71 60.02 59.44 59.31 59.46 59.34 58.98 57.87 57.28 54.00 51.75 50.20 49.05 49.75 52.03 49.72 49.23 50.07 48.85 46.72 44.97 44.67
30.22 27.91 27.73 31.89 34.93 34.07 33.46 34.33 41.11 44.46 45.18 48.50 50.77 53.00 54.31 55.90 57.70 58.73 60.39 59.97 60.42 60.46 60.45 60.33 60.60 61.46 61.79 61.27 60.28 60.19 59.03 56.27 57.10 55.04 53.34 51.69 50.79 49.87 48.14 47.48 47.52 49.59 48.04 48.33 48.57 48.15 46.92 46.52 47.32
29.44 27.49 28.20 28.05 33.11 34.76 33.25 32.14 36.02 42.79 47.46 48.92 50.60 52.73 54.71 55.43 56.76 57.75 58.47 58.63 59.11 59.15 60.03 60.95 61.96 62.04 61.96 61.14 60.28 57.79 54.38 51.68 50.77 51.00 48.39 48.99 48.22 47.51 47.26 46.23 46.42 47.78 48.51 47.44 47.75 47.93 47.80 45.65 45.16
26.00 32.86 30.86 29.12 28.33 24.38 34.62 24.07 35.73 40.24 43.63 45.52 49.54 51.19 53.25 54.81 56.75 57.80 58.34 58.19 58.40 59.16 60.21 60.84 60.90 60.65 61.42 61.33 57.75 56.04 55.22 52.83 52.18 49.63 47.90 46.46 46.49 45.75 45.33 45.10 45.52 46.12 45.92 44.76 45.72 46.83 47.09 45.43 42.91
29.05 33.97 31.37 30.55 28.35 28.25 29.04 26.07 33.28 40.95 39.76 43.17 47.54 50.66 53.48 55.52 56.67 56.72 58.17 58.36 59.28 59.75 60.60 60.68 60.52 60.06 61.00 59.63 59.30 58.40 57.91 56.31 52.21 47.34 45.44 44.58 44.56 44.27 43.80 44.31 43.17 43.44 42.97 42.89 43.16 44.44 45.23 44.16 44.06
34.65 31.71 30.98 30.62 29.01 20.69 26.85 26.01 30.19 38.12 41.00 44.23 47.44 49.94 52.32 54.81 56.90 57.24 58.92 59.31 59.11 60.27 60.58 61.06 60.22 59.34 60.69 59.68 59.34 58.42 57.33 51.25 46.62 44.30 44.15 42.62 42.27 42.07 42.22 41.64 41.38 40.98 40.97 42.68 42.87 42.22 41.08 39.04 41.57
32.74 28.06 19.53 19.00 20.15 19.23 30.44 26.92 30.16 39.79 44.69 45.42 46.71 48.68 52.08 54.91 56.72 57.00 57.62 58.04 58.28 58.96 59.61 60.52 60.23 59.30 59.50 59.54 58.90 58.36 55.70 52.04 49.29 45.64 44.91 41.97 41.05 40.97 41.58 40.70 39.82 40.42 40.77 39.55 38.66 37.36 36.99 38.90 39.26
30.19 28.93 22.80 15.43 18.71 22.86 30.36 24.89 33.74 41.52 43.44 48.14 48.90 49.95 52.15 54.06 56.91 57.05 57.98 58.25 57.79 58.36 59.08 59.62 59.47 58.68 58.59 58.29 57.34 56.14 52.99 50.84 49.44 47.65 43.78 44.15 41.47 41.15 40.92 39.50 38.89 37.82 38.34 36.26 35.88 36.24 37.60 38.00 37.66
29.37 25.65 32.53 26.35 30.57 26.67 31.43 35.68 41.82 44.43 44.18 45.74 48.59 50.16 50.81 52.47 56.16 56.55 57.96 58.25 58.21 57.98 58.42 59.12 59.04 58.53 58.29 56.62 56.40 53.75 50.00 48.42 45.70 43.74 45.02 42.06 40.87 39.10 38.24 37.88 37.09 35.33 34.58 34.50 35.21 36.29 35.40 36.44 37.06
32.22 34.60 24.20 28.27 20.08 23.27 28.43 32.31 35.87 40.38 42.82 45.05 46.52 49.02 51.54 53.55 55.99 56.31 57.22 57.65 58.27 58.14 58.64 59.27 59.27 57.46 57.43 56.70 53.02 49.41 46.78 45.38 43.55 42.33 41.56 39.57 37.98 37.63 36.80 36.16 35.99 34.96 34.19 34.38 34.93 35.27 34.94 35.40 36.19
30.73 28.56 31.26 30.39 27.75 24.66 24.85 31.05 40.05 39.92 42.14 43.39 45.99 49.48 51.90 54.51 54.61 54.61 55.63 56.30 55.91 55.57 56.62 57.14 57.18 54.53 52.94 51.02 49.56 45.97 42.79 42.33 41.35 40.15 39.08 38.53 37.50 37.34 37.03 36.16 35.37 34.79 33.60 34.12 34.35 34.68 34.72 34.30 33.14
35.15 32.75 31.98 27.85 29.20 31.08 31.01 33.49 40.02 41.53 42.45 45.42 46.19 50.06 53.05 53.41 50.62 49.48 48.00 47.93 48.38 47.30 47.84 47.10 46.71 46.33 45.65 44.33 42.57 41.20 41.12 40.16 39.45 38.17 38.37 38.38 37.54 37.84 37.24 36.48 35.49 34.87 33.96 34.21 34.23 33.98 33.16 32.84 31.43
MSLP
1014.76 1014.21 1014.00 1013.16 1012.74 1011.29 1009.52 1009.02 1008.61 1008.53 1008.39 1008.66 1008.77 1008.72 1008.80 1008.94 1009.32 1010.50 1011.41 1011.59 1011.54 1012.16 1013.13 1014.29 1014.71 1015.12 1015.51 1016.02 1016.45 1016.65 1016.85 1016.96 1017.12 1017.33 1017.52 1017.85 1018.11 1018.37 1018.69 1018.89 1018.96 1019.02 1019.08 1019.20 1019.33 1019.42 1019.51 1019.50 1019.47
1014.70 1014.31 1013.79 1012.80 1011.61 1009.99 1008.92 1009.02 1008.46 1008.17 1008.43 1009.04 1009.21 1009.24 1009.26 1008.80 1010.18 1011.07 1011.57 1011.97 1011.86 1012.30 1013.09 1014.01 1014.81 1015.23 1015.64 1016.05 1016.48 1016.71 1016.91 1017.12 1017.33 1017.53 1017.75 1018.00 1018.36 1018.67 1018.91 1019.06 1019.14 1019.17 1019.24 1019.34 1019.47 1019.55 1019.65 1019.67 1019.55
1014.54 1014.23 1013.17 1012.04 1010.59 1009.09 1008.54 1008.72 1008.28 1008.45 1008.71 1008.93 1009.10 1009.51 1009.37 1009.55 1010.68 1010.85 1011.56 1011.85 1011.85 1012.60 1013.09 1013.94 1014.92 1015.37 1015.75 1016.13 1016.52 1016.82 1017.02 1017.19 1017.43 1017.66 1017.95 1018.25 1018.49 1018.81 1019.06 1019.18 1019.20 1019.32 1019.41 1019.45 1019.55 1019.65 1019.65 1019.74 1019.66
1014.20 1013.62 1013.12 1011.67 1009.78 1009.29 1008.71 1008.40 1008.10 1008.35 1008.84 1009.07 1009.19 1009.30 1010.25 1010.82 1010.92 1011.06 1011.76 1012.04 1012.17 1012.73 1013.41 1014.43 1015.02 1015.46 1015.89 1016.21 1016.57 1016.93 1017.15 1017.34 1017.52 1017.75 1018.10 1018.37 1018.60 1018.91 1019.12 1019.27 1019.40 1019.53 1019.55 1019.56 1019.60 1019.69 1019.71 1019.75 1019.72
1014.15 1013.16 1011.87 1010.64 1009.70 1009.38 1009.02 1008.52 1008.49 1008.20 1008.32 1008.65 1009.28 1009.10 1010.03 1011.03 1011.43 1011.55 1011.99 1012.40 1012.34 1012.89 1013.55 1014.57 1015.08 1015.55 1015.97 1016.28 1016.66 1017.01 1017.27 1017.47 1017.69 1017.97 1018.21 1018.51 1018.85 1019.10 1019.31 1019.46 1019.57 1019.64 1019.66 1019.71 1019.71 1019.74 1019.75 1019.78 1019.79
1013.82 1012.92 1011.38 1010.00 1009.63 1009.26 1008.73 1008.31 1008.24 1008.22 1008.12 1008.80 1009.32 1009.50 1010.05 1011.33 1011.56 1011.91 1012.42 1012.65 1012.99 1013.05 1013.70 1014.47 1015.24 1015.64 1016.09 1016.35 1016.74 1017.01 1017.37 1017.63 1017.83 1018.08 1018.35 1018.68 1018.97 1019.20 1019.44 1019.55 1019.63 1019.69 1019.71 1019.76 1019.75 1019.81 1019.84 1019.84 1019.84
1013.86 1012.83 1011.02 1010.28 1009.41 1008.57 1008.48 1008.39 1007.91 1007.90 1007.91 1008.28 1008.90 1009.15 1010.33 1011.51 1011.62 1012.21 1012.52 1012.92 1013.25 1013.29 1013.82 1014.46 1015.05 1015.64 1016.20 1016.51 1016.81 1017.15 1017.41 1017.70 1017.95 1018.18 1018.48 1018.85 1019.13 1019.39 1019.53 1019.60 1019.66 1019.74 1019.78 1019.80 1019.85 1019.88 1019.91 1019.91 1019.97
1013.85 1013.02 1011.26 1009.89 1009.14 1008.33 1008.45 1008.30 1008.14 1007.82 1007.52 1008.65 1009.03 1008.81 1009.56 1010.69 1011.75 1012.39 1012.84 1013.31 1013.29 1013.68 1013.90 1014.24 1014.76 1015.39 1015.85 1016.49 1016.98 1017.22 1017.59 1017.89 1018.13 1018.35 1018.70 1019.04 1019.35 1019.57 1019.69 1019.74 1019.80 1019.82 1019.81 1019.84 1019.93 1019.97 1020.01 1020.10 1020.21
1014.12 1012.60 1009.98 1009.12 1009.18 1008.66 1008.66 1008.29 1007.97 1008.12 1007.94 1008.61 1009.06 1009.37 1009.89 1010.80 1011.95 1012.54 1013.00 1013.31 1013.55 1013.96 1014.32 1014.44 1014.55 1014.96 1015.43 1016.11 1016.96 1017.51 1017.82 1018.12 1018.42 1018.63 1018.94 1019.21 1018.98 1019.32 1019.54 1019.65 1019.87 1019.91 1019.92 1019.98 1020.02 1020.07 1020.18 1020.30 1020.40
1014.16 1011.99 1009.74 1009.85 1009.25 1008.95 1008.38 1008.22 1007.85 1008.07 1007.98 1008.34 1009.00 1010.06 1010.36 1011.48 1012.07 1012.26 1012.37 1012.71 1013.27 1013.81 1014.32 1014.67 1014.64 1014.86 1015.33 1015.96 1017.10 1017.14 1017.71 1017.97 1018.21 1018.44 1018.77 1018.65 1018.82 1018.96 1019.10 1019.56 1019.91 1020.02 1020.19 1020.15 1020.20 1020.29 1020.29 1020.02 1019.83
1013.66 1011.54 1011.30 1010.37 1009.81 1009.60 1008.75 1007.82 1007.96 1007.69 1007.14 1007.46 1008.06 1009.41 1010.65 1011.36 1012.05 1012.15 1012.43 1012.58 1012.96 1013.66 1014.27 1014.66 1014.66 1014.97 1015.43 1016.23 1016.78 1016.84 1017.32 1017.69 1018.04 1018.30 1018.49 1018.56 1018.76 1019.02 1019.02 1019.06 1019.33 1019.42 1019.91 1019.56 1019.94 1019.95 1020.02 1020.23 1020.10
1014.25 1013.04 1012.68 1011.96 1010.99 1010.50 1009.44 1008.69 1007.47 1007.30 1006.90 1007.47 1007.87 1008.81 1009.98 1010.96 1011.39 1011.64 1011.97 1012.37 1012.75 1013.35 1013.93 1014.54 1014.60 1015.02 1015.48 1016.27 1016.57 1016.72 1017.18 1017.62 1017.88 1018.15 1018.37 1018.47 1018.57 1018.72 1018.68 1018.64 1018.88 1019.37 1019.39 1019.77 1020.03 1020.21 1020.45 1020.53 1020.68
1014.51 1013.89 1013.17 1012.59 1012.28 1011.27 1010.73 1009.61 1008.45 1007.28 1007.06 1007.58 1008.27 1008.96 1009.65 1010.26 1010.86 1011.63 1011.76 1012.22 1012.61 1013.17 1013.70 1014.59 1014.65 1015.06 1015.44 1016.02 1016.29 1016.65 1017.01 1017.43 1017.62 1017.94 1018.18 1018.21 1018.28 1018.46 1018.51 1018.58 1019.18 1019.58 1019.55 1019.80 1020.10 1020.37 1020.57 1020.80 1020.92
1014.84 1014.50 1013.67 1012.97 1012.43 1011.97 1011.39 1009.72 1009.47 1007.91 1007.38 1007.14 1008.12 1008.44 1009.12 1009.80 1010.34 1011.17 1011.50 1011.56 1012.30 1012.75 1013.26 1014.27 1014.75 1014.96 1015.40 1015.79 1016.13 1016.57 1017.00 1017.31 1017.56 1017.64 1017.90 1018.14 1018.08 1018.12 1018.35 1019.18 1019.62 1019.77 1019.69 1019.95 1020.19 1020.44 1020.75 1021.03 1021.38
1015.48 1014.65 1013.62 1012.80 1012.05 1011.79 1011.66 1009.75 1007.61 1008.23 1007.57 1007.16 1007.50 1007.90 1008.57 1009.20 1010.06 1010.36 1010.83 1011.31 1012.06 1012.49 1013.05 1013.80 1014.53 1014.92 1015.41 1015.52 1015.89 1016.40 1016.89 1017.25 1017.38 1017.42 1017.73 1017.94 1018.02 1018.07 1018.82 1019.32 1019.89 1020.00 1020.07 1020.38 1020.64 1020.87 1021.02 1021.34 1021.81
1015.60 1014.58 1013.26 1011.99 1011.29 1011.16 1011.94 1008.06 1007.34 1007.36 1007.36 1006.92 1006.84 1007.23 1007.97 1008.52 1009.07 1009.70 1010.38 1010.95 1011.64 1012.11 1012.51 1013.28 1014.06 1014.74 1015.19 1015.45 1015.77 1016.15 1016.63 1017.01 1017.17 1017.29 1017.59 1017.90 1017.98 1018.54 1019.11 1019.63 1020.02 1019.89 1020.06 1020.32 1020.61 1020.90 1021.27 1021.66 1022.05
1014.76 1013.46 1012.56 1011.66 1011.05 1010.61 1009.95 1007.50 1007.73 1007.34 1006.43 1006.20 1006.21 1006.43 1007.15 1007.75 1008.52 1009.27 1009.91 1010.34 1011.02 1011.32 1012.08 1012.63 1013.39 1014.23 1014.79 1015.14 1015.54 1015.91 1016.31 1016.63 1016.98 1017.24 1017.42 1017.76 1018.34 1018.70 1019.29 1019.83 1020.20 1020.18 1020.20 1020.38 1020.73 1021.07 1021.45 1021.92 1022.46
1013.35 1013.25 1012.66 1011.68 1010.83 1010.16 1009.08 1007.56 1007.57 1006.62 1006.01 1005.65 1005.53 1005.73 1006.16 1006.78 1007.52 1008.27 1009.03 1009.82 1010.47 1010.84 1011.73 1012.37 1012.97 1013.67 1014.47 1015.03 1015.40 1015.82 1016.29 1016.56 1016.96 1017.23 1017.56 1017.99 1018.48 1018.95 1019.40 1019.89 1020.22 1020.26 1020.33 1020.74 1021.05 1021.37 1021.71 1022.15 1022.73
1013.68 1013.27 1012.55 1011.82 1011.10 1010.45 1009.09 1007.80 1006.81 1006.67 1005.99 1005.63 1004.87 1004.83 1004.96 1005.58 1006.64 1007.50 1008.27 1009.19 1009.95 1010.68 1011.31 1011.77 1012.27 1012.94 1013.83 1014.49 1015.02 1015.85 1016.22 1016.70 1017.22 1017.67 1018.09 1018.24 1018.75 1018.98 1019.39 1019.87 1020.18 1020.20 1020.39 1020.73 1021.15 1021.60 1022.08 1022.76 1023.00
1013.57 1012.93 1012.17 1011.77 1011.15 1011.06 1009.60 1008.24 1007.03 1005.50 1004.71 1004.83 1004.73 1004.43 1004.56 1005.00 1005.64 1006.87 1007.76 1008.63 1009.23 1010.08 1010.49 1011.10 1011.68 1012.33 1013.01 1013.73 1014.54 1015.52 1016.23 1016.97 1017.36 1017.96 1018.53 1018.68 1018.84 1019.09 1019.45 1019.74 1020.04 1020.17 1020.49 1020.86 1021.20 1021.45 1021.92 1022.39 1022.57
1012.92 1012.47 1011.50 1011.51 1011.04 1010.49 1009.44 1007.72 1006.65 1005.17 1004.48 1004.06 1003.67 1003.58 1003.87 1004.00 1004.57 1005.78 1006.84 1007.67 1008.51 1009.26 1009.94 1009.94 1010.79 1011.36 1012.34 1013.34 1014.39 1015.46 1016.55 1017.39 1017.91 1018.23 1018.75 1018.80 1019.02 1019.24 1019.43 1019.64 1019.89 1020.11 1020.24 1020.67 1021.05 1021.35 1021.49 1021.86 1022.86
1012.04 1011.15 1011.94 1011.80 1011.58 1009.64 1008.23 1006.23 1004.07 1003.73 1003.35 1003.27 1002.89 1002.79 1002.99 1003.27 1003.92 1004.99 1006.14 1006.89 1007.53 1008.25 1009.45 1009.53 1010.18 1010.69 1011.67 1012.65 1013.85 1014.56 1015.43 1016.51 1017.17 1017.88 1018.52 1018.96 1019.17 1019.40 1019.60 1019.84 1019.99 1020.22 1020.47 1020.76 1021.08 1021.21 1021.35 1021.66 1022.06
1010.50 1011.35 1011.26 1011.18 1010.82 1009.88 1008.13 1007.03 1003.16 1001.63 1001.37 1001.37 1001.58 1001.94 1002.17 1002.48 1002.98 1003.92 1005.01 1005.82 1006.54 1007.71 1008.49 1008.83 1009.43 1010.25 1010.95 1012.03 1012.79 1013.68 1014.74 1015.83 1016.75 1017.62 1018.55 1019.13 1019.45 1019.68 1019.78 1019.99 1020.34 1020.42 1020.68 1020.93 1020.91 1021.20 1021.40 1021.74 1021.88
1010.78 1011.09 1010.90 1010.68 1009.99 1008.43 1006.57 1006.17 1002.38 999.90 999.10 999.70 1000.01 1000.37 1000.94 1001.59 1002.33 1003.25 1004.01 1005.26 1006.03 1006.71 1007.67 1008.13 1008.97 1009.44 1010.41 1011.24 1012.15 1012.95 1013.96 1015.48 1016.71 1017.69 1018.33 1019.03 1019.48 1019.81 1020.03 1020.29 1020.49 1020.69 1020.83 1020.85 1021.06 1021.44 1021.61 1021.92 1021.91
1010.37 1010.28 1010.08 1009.55 1008.28 1005.97 1004.83 1004.53 1002.16 999.39 998.42 998.23 998.35 998.82 999.42 1000.40 1001.38 1002.36 1003.16 1004.43 1005.40 1006.09 1006.89 1007.60 1008.34 1008.89 1009.86 1010.68 1011.54 1012.61 1013.61 1014.67 1015.68 1016.62 1017.59 1018.41 1019.05 1019.49 1019.82 1020.13 1020.49 1020.71 1021.01 1021.34 1021.70 1022.00 1022.17 1022.03 1022.05
1008.96 1008.60 1007.17 1006.41 1005.40 1004.28 1003.90 1001.97 999.61 998.37 998.14 997.95 997.51 997.74 998.45 999.17 1000.04 1001.21 1002.08 1003.38 1004.51 1005.35 1006.14 1006.99 1007.97 1008.78 1009.48 1010.23 1011.20 1012.41 1013.24 1014.26 1015.22 1016.10 1017.07 1017.78 1018.69 1019.29 1019.83 1020.46 1020.58 1021.08 1021.35 1021.82 1022.14 1022.34 1022.33 1022.34 1022.65
1008.38 1008.15 1006.42 1006.45 1004.59 1003.55 1001.68 1000.47 998.83 998.28 997.49 997.71 997.74 997.81 997.93 998.71 999.59 1000.82 1002.02 1002.91 1003.97 1004.84 1005.66 1006.40 1007.32 1008.52 1009.40 1010.09 1011.06 1012.32 1013.10 1014.04 1014.88 1016.10 1017.05 1017.76 1018.62 1019.25 1019.97 1020.55 1021.10 1021.27 1021.73 1022.15 1022.44 1022.43 1022.77 1022.55 1022.76
1007.41 1006.64 1007.22 1006.23 1004.52 1002.25 1000.85 999.65 998.02 998.12 997.95 998.03 997.92 997.70 997.94 998.69 999.68 1000.92 1001.90 1002.79 1003.95 1004.75 1005.70 1006.57 1007.24 1008.15 1009.10 1010.15 1011.16 1012.13 1013.00 1014.08 1014.99 1016.02 1016.95 1017.64 1018.68 1019.61 1019.85 1020.71 1021.59 1021.94 1022.33 1022.42 1022.60 1022.90 1023.04 1022.79 1022.87
1007.57 1006.67 1005.67 1004.91 1003.97 1002.38 1000.80 999.60 999.54 999.29 999.12 998.71 998.56 998.27 998.40 999.09 1000.15 1001.39 1002.48 1003.31 1004.48 1005.18 1005.92 1006.71 1007.46 1008.37 1009.42 1010.64 1011.43 1012.31 1013.44 1014.42 1015.45 1016.32 1017.49 1017.83 1018.94 1019.97 1020.80 1020.82 1021.37 1021.86 1022.44 1022.55 1022.78 1023.03 1022.96 1022.85 1023.12
1007.04 1006.12 1005.53 1004.68 1003.02 1002.45 1001.40 1000.67 1000.96 1000.43 1000.15 999.82 999.44 999.09 999.04 1000.28 1001.53 1002.69 1003.73 1004.67 1005.65 1006.41 1007.07 1007.69 1008.19 1009.25 1010.34 1011.18 1011.83 1012.92 1013.90 1014.78 1015.86 1016.48 1017.82 1017.73 1019.49 1020.61 1020.41 1021.45 1021.21 1021.77 1022.55 1022.36 1022.64 1022.81 1023.22 1022.92 1023.20
Wind_Speed
14 10 4 5 7 6 14 9 11 6 4 2 3 4 7 4 4 3 3 7 19 21 19 19 18 20 21 19 17 16 16 17 17 16 17 15 15 14 13 12 11 10 10 10 9 9 9 9 9
11 5 4 3 8 12 13 12 13 10 1 2 5 4 6 4 2 5 10 9 20 20 19 18 15 20 20 19 18 17 16 16 17 17 16 15 14 14 13 12 10 10 9 9 9 9 8 8 8
8 4 4 5 11 16 13 10 14 5 4 7 5 3 2 2 2 8 2 16 21 18 18 17 15 20 20 20 18 17 16 16 17 16 16 16 15 14 12 11 11 9 8 8 8 7 8 6 7
4 5 5 12 17 15 19 11 9 7 3 5 3 5 3 2 1 6 12 18 19 18 17 18 17 21 20 19 19 17 17 18 17 17 16 15 14 13 12 10 10 8 8 7 7 6 6 6 6
4 4 12 15 21 18 12 14 8 8 3 6 8 4 2 2 3 10 16 16 19 18 16 18 16 19 19 19 18 17 16 16 15 16 15 15 13 12 11 10 9 8 7 5 5 5 5 5 5
5 6 13 20 20 17 18 12 10 13 11 4 6 5 3 3 10 13 16 17 16 17 16 17 13 16 18 18 18 17 15 15 14 13 14 14 13 11 10 9 8 7 6 4 5 5 4 5 6
8 10 20 21 21 23 18 9 16 17 14 10 2 6 5 8 11 14 16 15 16 16 16 15 16 15 12 13 14 15 15 14 13 12 13 12 10 10 9 8 7 6 5 4 4 4 4 5 6
7 6 22 23 20 25 16 16 14 14 18 3 6 7 5 13 15 15 13 11 15 14 15 16 16 15 16 15 9 12 12 11 11 10 10 10 9 8 7 6 5 4 4 4 3 2 3 8 8
9 11 19 27 25 20 17 17 11 3 8 6 7 2 2 19 17 15 13 14 14 13 13 12 16 16 16 15 12 10 11 10 9 9 9 10 8 9 9 5 4 3 2 2 3 9 8 9 10
12 14 25 20 18 16 22 20 15 12 11 9 8 4 11 17 17 18 18 17 17 15 13 12 15 15 14 11 11 12 11 10 10 10 12 8 8 7 5 4 2 1 1 7 10 9 6 2 4
10 24 18 16 21 10 20 23 21 15 18 15 14 14 15 16 17 18 19 18 17 16 11 12 15 15 15 11 7 6 7 7 7 10 9 8 6 6 5 4 5 5 5 4 5 4 4 5 4
19 21 13 11 16 13 16 19 23 22 14 5 6 16 19 19 20 19 17 19 19 18 16 11 15 14 14 8 7 8 7 7 7 8 10 7 5 6 5 4 4 3 3 5 3 4 5 6 6
17 17 20 16 16 16 15 20 18 19 20 10 5 14 18 18 19 17 17 17 18 18 15 12 13 13 11 11 8 8 8 8 9 9 9 7 6 6 6 5 4 4 4 4 4 4 5 6 7
10 14 16 18 17 14 17 19 12 14 18 16 12 13 15 18 19 15 19 20 19 20 17 14 13 10 12 11 11 8 7 8 8 8 8 9 7 7 5 5 5 4 4 4 4 4 5 6 7
12 16 15 17 17 16 13 22 29 21 18 19 17 13 13 16 18 18 18 17 18 17 17 15 14 11 10 12 11 8 7 8 8 8 9 9 8 7 6 5 5 4 5 6 6 6 6 7 7
16 16 18 8 12 17 10 20 20 22 22 22 20 18 15 16 22 20 17 20 21 19 21 18 11 13 13 11 10 8 8 8 8 7 7 8 7 7 6 5 4 5 5 5 5 5 6 6 6
13 15 16 14 15 15 23 23 21 20 19 24 24 19 16 16 18 18 17 18 20 19 20 21 17 15 15 13 10 9 10 8 7 7 6 8 7 8 6 5 5 5 5 5 5 6 6 7 7
10 15 15 16 8 15 23 27 18 13 22 22 22 25 20 19 20 22 21 19 20 20 18 20 16 16 17 10 10 8 8 7 6 6 6 8 7 8 7 5 6 4 5 5 6 8 7 7 8
19 19 20 19 17 15 17 20 25 24 16 17 20 21 23 23 19 20 20 19 21 18 18 21 20 17 15 12 11 9 8 6 5 4 6 8 7 8 8 5 5 6 6 7 9 9 11 7 8
23 23 23 22 23 16 22 23 20 22 29 23 22 21 21 20 21 20 21 19 19 21 21 18 18 20 17 12 11 8 7 4 5 5 5 6 7 8 7 7 5 7 7 9 10 10 6 4 7
24 24 23 20 15 15 17 22 24 22 17 25 26 23 21 23 21 21 21 22 21 20 21 21 22 21 19 16 10 7 7 5 5 6 4 5 6 6 6 7 6 8 7 7 8 8 7 6 4
24 26 21 18 12 11 14 11 21 23 22 18 23 24 24 22 20 21 22 20 22 20 18 19 21 22 20 18 14 17 10 10 6 7 5 5 6 6 6 7 6 7 5 7 6 6 5 5 5
21 16 18 18 18 17 18 10 9 20 26 26 26 26 23 23 23 24 23 21 20 18 18 18 20 22 21 20 17 14 13 10 8 7 9 7 6 6 6 7 6 7 5 5 7 7 6 4 5
9 12 9 11 12 12 20 12 12 16 25 21 24 27 26 23 22 23 22 18 18 18 18 19 20 22 20 20 20 18 18 13 9 8 8 6 5 5 6 6 6 6 6 7 6 5 6 4 4
16 13 6 9 9 10 9 13 18 15 15 24 23 24 26 24 23 22 22 20 19 20 19 18 21 20 20 20 19 17 16 18 17 14 10 12 8 6 9 9 7 6 6 6 5 5 3 5 5
19 16 7 10 8 6 14 10 11 25 27 13 20 22 23 26 23 24 24 22 20 20 20 20 20 18 19 18 17 14 14 9 9 11 9 8 7 7 7 6 7 6 7 6 4 3 3 4 4
12 16 21 7 1 6 6 7 11 7 10 14 16 16 19 23 22 22 21 21 21 20 20 20 20 17 18 16 14 14 12 13 11 10 10 8 8 8 8 7 6 7 6 4 3 3 3 4 3
7 12 10 7 5 8 6 6 6 8 12 7 13 14 18 21 19 19 19 20 17 17 16 17 18 17 17 15 14 11 12 10 11 10 12 11 9 8 10 8 6 5 4 2 3 4 4 4 3
6 13 10 7 8 6 5 5 5 3 4 6 8 14 17 19 17 15 15 13 12 10 11 12 13 13 12 11 11 12 11 11 10 10 9 11 10 9 4 8 7 5 5 6 5 6 5 5 4
4 7 14 5 9 6 3 1 9 8 9 10 9 14 17 9 11 10 10 11 10 9 9 9 10 10 9 10 12 12 12 12 12 11 12 13 9 5 7 5 5 6 7 7 7 6 6 6 6
Wind_Direction
314 321 284 234 234 238 235 224 239 223 224 141 131 196 219 334 228 4 123 147 147 155 152 160 155 149 144 142 144 145 143 141 139 136 136 132 124 126 123 123 118 114 109 103 99 93 83 76 71
314 293 237 253 240 224 230 231 222 233 253 175 182 203 229 215 124 104 141 170 160 155 152 160 157 151 146 145 149 147 145 143 142 142 139 132 131 131 133 129 126 119 110 105 97 88 80 72 70
294 250 258 238 234 235 239 209 240 242 248 214 206 249 280 83 142 156 103 162 157 156 158 149 155 150 150 150 150 150 148 147 146 142 140 140 141 137 135 136 131 117 112 104 96 89 82 71 65
279 196 220 241 234 232 237 240 244 199 172 199 226 211 176 355 220 163 148 160 157 157 159 142 151 154 154 151 151 152 152 151 149 147 147 147 141 141 147 138 132 120 110 103 95 87 82 77 71
232 251 239 234 238 238 227 242 226 221 224 187 192 215 195 123 167 145 147 165 160 158 158 158 152 156 156 155 153 154 154 152 151 152 153 146 146 148 135 135 129 121 112 106 97 94 94 81 71
238 245 234 234 231 230 240 232 226 244 253 185 215 212 139 118 163 145 154 167 162 159 158 157 150 156 163 157 157 156 155 154 154 152 146 149 154 156 146 142 135 133 128 126 115 110 96 82 70
244 230 239 242 240 233 227 222 235 239 245 224 259 222 110 170 158 154 155 161 168 160 163 164 166 161 161 158 159 160 156 153 153 152 148 148 152 152 148 143 144 144 144 134 132 134 114 90 68
240 248 242 237 236 239 227 239 247 247 246 76 192 222 195 177 160 156 148 155 164 165 169 169 173 171 172 169 152 141 145 148 150 146 140 141 143 138 141 146 149 155 153 151 148 133 66 81 62
258 241 235 233 234 241 230 241 221 279 219 194 183 275 16 146 151 153 160 165 163 168 170 177 175 177 174 174 155 135 136 137 138 139 139 152 166 170 167 101 150 160 154 105 72 83 92 105 82
227 236 241 245 235 245 239 234 239 223 214 203 172 107 136 155 165 169 173 169 169 170 171 174 179 178 172 165 156 164 155 165 171 172 170 174 164 165 166 150 185 193 97 98 90 94 112 176 93
248 244 259 257 247 259 261 241 229 227 234 227 205 168 165 170 179 179 180 178 172 171 167 176 176 175 174 161 163 167 169 168 174 177 175 171 169 171 180 160 177 174 193 145 134 119 70 67 76
258 261 266 292 292 303 275 252 235 226 218 223 213 173 168 181 185 186 181 180 178 176 172 175 174 173 174 160 177 170 170 172 175 180 180 173 177 177 170 172 163 124 124 109 100 85 83 87 84
266 272 274 274 282 294 277 258 266 239 228 213 167 166 183 189 190 192 182 178 182 178 170 172 173 171 172 174 178 175 177 180 178 178 183 185 180 179 172 160 108 113 122 120 108 100 102 97 97
298 296 288 278 268 276 291 276 256 240 249 244 206 185 189 193 191 185 186 183 185 182 172 173 173 166 175 181 178 178 177 179 184 183 185 189 186 179 154 124 112 123 118 111 110 114 111 105 103
283 285 287 273 260 258 290 274 243 236 242 243 218 209 192 196 192 191 187 187 186 187 176 171 173 167 181 186 179 180 182 184 189 188 186 187 188 175 136 124 124 127 112 116 116 115 116 113 109
277 276 270 268 247 233 201 260 254 231 232 232 232 221 208 194 197 191 187 184 188 187 188 173 168 177 185 190 184 181 182 190 193 190 187 189 183 137 128 126 135 143 141 136 132 130 119 121 116
234 258 254 266 248 252 209 248 244 264 226 230 231 225 210 202 202 194 186 185 193 191 191 186 172 182 190 189 186 186 185 193 196 195 188 181 145 124 127 129 138 131 139 142 139 134 132 128 118
248 240 252 260 259 238 245 243 241 262 241 226 230 225 218 214 201 196 189 192 196 189 191 191 181 178 191 186 187 185 185 185 183 184 176 157 142 128 125 134 141 155 142 137 137 130 127 125 125
268 273 270 267 265 281 267 270 243 236 244 257 233 231 225 222 213 201 193 189 194 194 188 191 184 180 187 186 183 178 176 167 160 158 156 149 148 137 141 143 147 153 151 143 142 133 130 124 137
251 257 255 264 261 260 261 270 272 248 234 230 235 230 227 220 212 200 193 189 191 192 191 182 183 184 188 183 183 179 157 160 155 142 143 141 142 142 146 148 153 159 148 149 155 155 147 136 183
247 247 249 246 270 262 267 269 264 251 238 230 235 231 225 222 211 199 193 190 187 190 196 186 188 186 181 178 165 147 121 119 144 155 143 147 146 146 146 152 147 158 167 171 169 174 180 147 183
245 237 251 260 260 253 197 267 236 220 224 225 233 227 228 223 215 202 197 193 188 189 194 189 186 182 181 171 170 171 170 169 172 170 155 149 153 150 145 146 149 153 156 159 170 184 181 167 169
243 249 238 238 236 259 251 267 268 214 218 218 219 224 221 218 211 203 200 194 188 181 190 188 185 183 179 175 179 176 175 181 158 142 148 156 150 150 146 149 140 146 142 147 157 165 174 171 173
218 242 188 234 229 236 239 221 252 212 214 209 214 214 217 218 209 206 198 188 186 182 187 183 184 186 180 182 181 184 177 162 150 150 158 162 157 152 152 149 146 145 144 150 145 136 143 141 153
196 171 213 218 201 241 221 215 246 262 233 214 211 212 209 209 205 201 193 188 184 184 184 183 186 184 180 185 184 187 176 172 172 168 174 162 163 171 169 161 152 146 138 125 125 124 130 139 152
187 188 197 202 202 236 194 231 227 236 238 244 229 217 207 204 198 197 187 185 185 185 184 180 185 181 182 178 179 178 169 171 171 175 168 169 164 153 147 144 133 116 124 120 116 101 125 127 152
165 209 228 322 132 231 197 242 260 202 208 217 222 219 210 205 200 195 188 185 185 184 185 182 180 177 183 179 174 172 161 162 162 156 162 152 139 135 134 125 136 116 112 107 133 126 161 158 145
208 182 194 223 249 208 192 225 230 190 200 203 227 218 208 200 191 191 186 183 185 183 187 184 181 174 177 176 167 163 156 151 146 144 153 137 127 127 131 119 124 104 113 134 165 167 182 172 152
195 189 220 214 242 316 150 215 27 309 281 264 265 232 207 192 185 181 177 167 167 155 169 176 170 155 153 157 152 139 135 132 133 134 128 118 116 115 121 128 142 145 170 194 193 201 187 188 173
252 186 211 217 188 216 299 118 3 323 295 275 263 231 197 161 114 114 117 115 116 116 122 120 110 114 124 124 118 118 121 123 126 128 121 115 114 123 138 172 149 162 206 196 207 200 210 202 204